Location: Heisede
(52.2582°N, 9.8523°E)
Time: 07:13:45
(UTC+00:00)

Cosmos 1763 Rocket - Pass Details

Date: 13 January 2026
Orbit: 729 x 773 km, 74.0° (Epoch: 19 February)

Event Time Altitude Azimuth Distance (km) Brightness Sun altitude
Exits shadow 06:16:48 - 332° (NNW) 2,614 5.8 -9.9°
Reaches altitude 10° 06:17:45 10° 330° (NNW) 2,238 5.4 -9.8°
Maximum altitude 06:22:46 67° 249° (WSW) 795 3.4 -9.1°
Drops below altitude 10° 06:27:46 10° 168° (SSE) 2,233 6.5 -8.4°
Sets 06:30:07 0° 166° (SSE) 3,156 7.3 -8.0°
